Temp
13 12 12 13 13 13 13 13 13 14 13 14 13 12 12 12 11 11 11 10 10 10 10 11 11 11 12 11 11 11 11 11 12 11 11 12 11 11 11 10 10 11 11 11
12 12 13 13 13 13 13 13 14 14 14 13 13 12 12 12 12 12 11 11 10 10 10 10 10 10 11 12 11 11 11 11 11 11 11 11 11 11 11 11 11 10 10 11
12 12 13 13 12 12 13 13 14 14 14 13 14 13 12 14 13 12 11 11 11 10 10 11 10 11 11 12 12 11 11 11 11 11 12 11 11 11 11 11 11 10 10 10
11 12 12 13 12 12 12 14 13 14 13 13 14 14 14 14 15 14 12 13 11 11 10 10 11 11 11 11 11 11 11 11 11 12 12 11 12 12 11 11 11 11 11 11
11 11 11 12 12 12 14 13 13 13 14 14 14 13 15 14 14 15 13 13 13 13 12 12 12 11 11 11 12 11 11 11 11 12 11 11 12 11 11 11 11 11 11 10
10 11 11 11 12 12 13 12 13 13 13 12 15 14 15 15 16 16 15 15 14 13 13 12 13 11 11 10 11 12 11 11 11 11 11 11 11 11 11 11 11 11 11 10
10 10 11 11 11 12 12 12 13 11 10 10 14 14 15 17 16 16 16 15 15 14 14 13 13 13 11 11 11 12 12 12 11 11 11 11 11 11 11 11 11 11 11 11
10 10 11 11 11 12 12 12 12 10 9 11 13 13 15 16 17 17 16 16 15 15 15 15 15 14 12 11 12 12 13 12 12 12 11 11 11 11 12 11 11 11 11 10
10 10 11 11 11 12 12 12 13 13 13 12 14 15 16 17 17 17 17 16 15 16 16 16 15 14 13 12 12 13 13 12 12 12 12 11 11 12 12 12 11 11 11 11
10 10 11 11 12 12 12 12 13 13 10 10 13 14 16 17 17 18 17 16 16 15 15 16 15 15 14 13 12 12 12 12 12 12 12 11 11 12 12 11 12 11 12 12
10 10 10 11 11 12 12 12 12 13 13 10 8 14 16 16 17 17 17 16 16 15 15 15 15 15 14 13 13 12 11 12 12 12 12 12 12 12 12 12 12 12 12 12
10 10 10 11 11 12 12 12 12 13 12 13 13 15 16 16 16 17 16 16 15 15 15 15 14 14 14 13 13 13 12 11 12 12 12 12 12 11 12 12 12 12 12 12
8 9 10 10 11 11 11 12 12 12 13 13 11 14 16 16 16 16 16 16 16 16 15 15 15 15 15 14 13 12 12 12 11 11 11 12 12 12 12 12 12 12 12 12
8 8 9 10 11 11 11 11 12 12 13 13 14 15 15 15 15 15 16 15 15 16 17 16 15 15 15 15 14 13 12 12 11 11 11 11 12 12 12 12 12 12 12 12
8 8 9 10 11 11 10 11 11 12 12 13 14 15 14 15 15 14 14 15 15 15 15 15 16 15 15 15 14 13 13 12 12 11 11 11 11 11 11 11 12 12 12 12
7 7 8 9 9 10 10 11 11 12 13 13 14 15 14 14 14 14 14 14 14 15 15 15 14 15 15 15 14 13 13 12 12 11 11 10 10 10 11 11 11 11 12 12
7 7 8 9 9 9 10 10 11 12 12 13 14 15 14 13 13 14 14 13 13 13 13 13 14 14 14 14 14 14 14 13 13 12 12 10 10 10 10 10 10 11 11 11
6 6 7 9 9 7 6 8 9 9 10 11 11 14 14 13 12 13 13 14 14 13 13 13 13 13 13 13 13 13 13 12 12 12 12 11 10 10 10 10 10 9 10 11
6 6 7 8 7 5 5 5 7 8 7 6 8 8 12 12 12 13 13 13 13 13 12 13 13 13 12 12 13 13 13 13 13 13 13 12 11 11 10 10 10 10 9 10
5 6 7 7 6 4 4 5 6 8 6 5 7 10 10 11 11 11 12 12 11 11 11 12 12 12 12 12 12 12 13 13 13 13 14 13 12 12 12 12 12 11 10 10
5 6 6 6 5 4 5 5 6 6 6 6 6 6 9 10 11 11 10 11 10 10 11 11 12 12 12 12 12 12 12 12 13 13 13 13 13 13 13 13 12 11 11 11
5 5 5 5 4 3 5 5 5 6 5 5 6 6 7 8 9 10 9 8 8 8 8 9 11 11 12 12 12 12 12 12 13 13 14 13 13 13 14 14 14 12 11 12
2 4 3 2 1 2 4 4 3 3 4 4 5 6 5 5 5 5 6 6 7 8 8 9 9 11 11 11 11 12 12 12 13 13 13 14 14 13 14 14 14 13 12 12
1 0 1 2 1 1 2 2 4 3 3 4 3 4 5 3 3 4 5 6 6 6 7 8 8 9 9 10 11 11 12 12 12 13 13 13 13 13 14 14 14 14 13 13
0 0 2 2 1 2 1 1 1 1 2 3 4 3 4 2 3 4 4 5 4 5 5 7 7 8 9 9 10 10 10 11 11 12 12 12 12 13 13 13 13 14 14 13
-1 -0 0 0 0 2 1 0 0 1 1 2 3 4 4 2 1 2 4 5 4 5 5 6 6 7 8 8 9 9 10 10 10 10 11 11 12 12 12 12 12 13 13 13
Height
3147 3149 3149 3154 3156 3159 3160 3161 3160 3160 3161 3162 3159 3158 3160 3161 3163 3165 3168 3171 3173 3177 3181 3183 3187 3189 3192 3195 3197 3199 3202 3204 3207 3209 3210 3212 3213 3214 3215 3216 3219 3221 3224 3225
3142 3140 3148 3151 3154 3157 3159 3159 3159 3159 3159 3161 3159 3157 3158 3160 3163 3164 3167 3169 3170 3174 3178 3180 3184 3187 3191 3195 3197 3199 3202 3204 3207 3210 3212 3213 3213 3215 3216 3219 3220 3221 3223 3225
3134 3140 3147 3148 3151 3155 3157 3158 3159 3160 3159 3159 3159 3157 3155 3156 3161 3163 3163 3167 3170 3172 3174 3178 3181 3185 3189 3193 3196 3198 3201 3203 3206 3208 3212 3213 3213 3214 3217 3220 3222 3223 3225 3227
3131 3137 3140 3144 3146 3152 3154 3156 3158 3158 3156 3158 3157 3157 3154 3153 3157 3158 3160 3162 3165 3168 3172 3176 3179 3182 3187 3191 3195 3197 3199 3202 3204 3206 3209 3212 3215 3217 3219 3221 3222 3225 3227 3228
3124 3129 3134 3137 3142 3149 3149 3155 3156 3156 3155 3154 3154 3155 3150 3151 3152 3153 3156 3159 3162 3165 3168 3171 3175 3181 3186 3189 3193 3197 3198 3200 3202 3205 3208 3212 3215 3218 3219 3221 3223 3225 3227 3228
3121 3126 3130 3134 3140 3145 3147 3151 3153 3153 3154 3151 3151 3155 3143 3145 3146 3151 3153 3155 3158 3161 3165 3169 3175 3179 3183 3187 3190 3194 3197 3199 3201 3203 3206 3210 3214 3217 3219 3220 3223 3225 3226 3227
3117 3119 3124 3130 3134 3140 3143 3149 3151 3152 3152 3147 3148 3150 3140 3141 3145 3149 3152 3154 3157 3159 3162 3166 3170 3175 3178 3183 3187 3191 3194 3196 3200 3202 3205 3209 3213 3216 3219 3221 3222 3224 3227 3228
3112 3116 3117 3122 3125 3133 3138 3143 3146 3151 3149 3144 3147 3142 3136 3139 3141 3143 3149 3154 3156 3159 3161 3165 3169 3174 3175 3180 3184 3189 3191 3193 3197 3201 3204 3207 3210 3215 3218 3220 3222 3224 3226 3228
3107 3109 3113 3117 3122 3129 3131 3135 3142 3144 3143 3145 3142 3136 3136 3135 3135 3138 3142 3150 3152 3155 3159 3164 3169 3170 3173 3177 3182 3187 3190 3192 3194 3198 3202 3206 3208 3211 3217 3219 3221 3223 3225 3227
3104 3107 3108 3113 3119 3122 3125 3132 3136 3137 3141 3144 3136 3134 3134 3133 3131 3132 3138 3144 3149 3153 3158 3163 3166 3168 3172 3177 3181 3185 3188 3191 3193 3196 3199 3203 3207 3209 3212 3217 3220 3222 3224 3226
3099 3103 3106 3108 3108 3114 3119 3123 3129 3132 3132 3133 3139 3131 3131 3131 3132 3133 3136 3141 3146 3151 3155 3159 3164 3168 3172 3174 3179 3181 3185 3189 3191 3194 3197 3200 3204 3207 3210 3213 3218 3220 3223 3225
3093 3097 3100 3103 3107 3111 3114 3118 3122 3124 3128 3129 3129 3130 3127 3127 3129 3132 3136 3140 3143 3148 3152 3156 3159 3162 3167 3172 3177 3179 3181 3185 3189 3192 3194 3197 3200 3203 3207 3210 3214 3218 3221 3222
3091 3092 3096 3099 3103 3104 3105 3109 3114 3118 3121 3122 3127 3126 3126 3127 3129 3131 3134 3139 3141 3144 3150 3153 3156 3158 3161 3166 3171 3175 3181 3183 3186 3188 3190 3193 3196 3199 3202 3207 3210 3214 3217 3220
3090 3090 3090 3092 3097 3100 3101 3104 3108 3111 3112 3115 3118 3123 3123 3124 3126 3128 3130 3134 3139 3143 3145 3149 3152 3155 3156 3160 3164 3173 3178 3181 3181 3183 3185 3188 3191 3195 3198 3202 3206 3209 3212 3215
3088 3089 3090 3089 3092 3095 3097 3099 3101 3104 3106 3108 3114 3117 3119 3121 3123 3124 3126 3129 3134 3137 3137 3142 3147 3152 3154 3158 3162 3166 3170 3176 3179 3179 3179 3184 3188 3191 3194 3196 3200 3203 3207 3210
3086 3087 3088 3088 3089 3092 3093 3096 3097 3099 3101 3104 3108 3112 3114 3116 3120 3122 3124 3128 3132 3135 3135 3140 3145 3148 3152 3154 3156 3161 3163 3169 3173 3175 3176 3179 3182 3185 3188 3190 3193 3196 3199 3202
3084 3084 3086 3085 3085 3089 3092 3092 3093 3094 3096 3099 3102 3107 3111 3114 3116 3118 3121 3126 3129 3132 3136 3140 3143 3146 3149 3152 3155 3158 3160 3164 3168 3170 3172 3174 3177 3180 3184 3186 3187 3190 3193 3195
3080 3081 3083 3081 3082 3087 3089 3090 3091 3092 3092 3094 3096 3100 3106 3110 3113 3115 3119 3122 3127 3131 3136 3138 3141 3143 3146 3150 3152 3154 3155 3159 3163 3165 3168 3171 3172 3174 3177 3179 3181 3184 3186 3187
3077 3077 3078 3078 3080 3086 3087 3088 3089 3091 3093 3092 3095 3098 3098 3104 3107 3108 3113 3118 3123 3127 3131 3135 3138 3142 3144 3147 3148 3151 3152 3155 3157 3159 3162 3164 3167 3168 3169 3170 3173 3177 3179 3180
3073 3073 3076 3076 3078 3083 3086 3086 3088 3087 3092 3093 3094 3096 3099 3103 3107 3108 3109 3114 3117 3122 3126 3130 3135 3137 3139 3142 3145 3146 3148 3150 3152 3153 3156 3159 3161 3163 3163 3165 3166 3168 3169 3171
3069 3070 3072 3074 3077 3083 3084 3085 3086 3090 3095 3090 3092 3094 3097 3101 3104 3106 3106 3109 3112 3116 3120 3125 3130 3133 3135 3138 3141 3143 3145 3146 3147 3148 3149 3153 3153 3155 3156 3159 3159 3162 3162 3161
3066 3068 3071 3075 3077 3084 3083 3084 3088 3088 3088 3090 3090 3092 3095 3097 3099 3103 3105 3107 3110 3113 3118 3122 3126 3130 3132 3134 3136 3138 3140 3141 3142 3142 3143 3144 3144 3144 3147 3148 3151 3151 3154 3154
3066 3067 3070 3074 3079 3083 3081 3084 3086 3087 3091 3090 3091 3094 3093 3096 3099 3101 3105 3106 3108 3110 3114 3117 3122 3124 3126 3128 3129 3131 3132 3133 3134 3135 3136 3137 3137 3138 3139 3141 3143 3144 3144 3145
3064 3066 3069 3073 3079 3080 3081 3082 3082 3085 3089 3090 3090 3090 3093 3097 3100 3100 3098 3103 3107 3109 3112 3111 3115 3116 3116 3118 3120 3122 3124 3125 3126 3128 3129 3130 3130 3131 3132 3132 3134 3134 3134 3136
3064 3067 3068 3072 3077 3081 3082 3081 3082 3083 3086 3087 3087 3089 3090 3096 3098 3099 3100 3103 3104 3107 3106 3106 3110 3111 3111 3114 3114 3116 3117 3119 3120 3121 3121 3121 3122 3123 3123 3123 3124 3125 3126 3126
3065 3068 3071 3072 3074 3078 3082 3082 3083 3085 3086 3088 3088 3090 3090 3089 3095 3099 3101 3100 3103 3105 3103 3106 3109 3105 3108 3108 3109 3111 3112 3112 3112 3113 3114 3114 3113 3113 3114 3114 3116 3115 3117 3118
Wind_Speed
30 25 27 24 17 11 11 9 12 17 12 7 4 4 13 11 26 21 16 18 19 20 16 14 12 12 15 17 16 13 14 16 14 16 21 21 21 19 17 15 14 12 10 12
35 34 28 25 18 14 12 12 11 14 9 7 5 6 11 16 23 19 17 19 20 19 19 18 15 12 14 15 16 16 14 13 15 16 19 20 19 18 17 15 13 10 8 6
32 33 30 27 20 18 16 16 12 13 17 16 9 12 14 12 20 23 23 21 19 21 21 20 18 15 13 17 18 17 16 14 16 16 20 19 22 21 16 14 12 10 10 10
33 30 29 31 26 19 21 19 12 14 14 9 4 4 8 15 12 18 19 20 21 23 22 22 17 17 15 14 19 19 17 18 19 17 17 19 20 19 19 16 14 11 10 10
34 32 33 32 29 22 30 18 15 16 17 16 8 5 11 13 18 19 24 24 21 20 20 21 19 16 12 15 19 21 21 20 22 19 18 19 18 22 21 18 15 13 11 10
33 27 26 34 28 25 27 18 16 12 16 12 17 10 16 13 16 20 19 20 19 25 21 18 15 17 16 16 19 23 25 23 22 21 20 19 19 24 21 18 15 11 10 9
24 27 30 22 34 30 27 18 3 2 3 7 11 13 33 14 14 15 23 20 18 18 16 17 17 20 21 21 21 23 26 26 23 21 20 19 20 26 22 19 16 11 9 8
28 26 32 27 33 35 30 25 11 6 4 5 12 11 24 18 17 18 21 21 22 18 12 14 17 21 21 21 21 22 26 26 24 22 22 21 21 23 25 21 18 15 13 11
13 19 20 36 32 29 28 25 20 15 13 2 8 18 18 11 17 20 25 22 27 25 18 14 13 18 20 22 22 22 22 26 25 22 20 22 22 20 27 23 20 17 16 14
25 9 12 23 34 32 29 14 13 15 6 5 8 11 11 9 10 20 27 29 23 25 25 22 15 14 16 19 18 19 22 23 25 25 23 21 22 20 25 27 23 21 18 16
24 26 19 21 32 37 34 28 21 15 10 7 2 10 21 19 13 18 28 29 27 21 23 29 20 19 15 18 19 17 19 23 25 26 25 24 22 21 23 26 27 24 21 19
21 15 26 24 23 22 30 29 25 25 14 10 12 19 10 16 18 19 20 21 21 23 25 29 31 24 25 18 17 14 17 21 25 24 25 26 24 23 23 25 28 28 24 21
6 15 21 21 23 26 26 24 21 20 20 27 13 8 9 13 23 23 19 14 17 22 22 27 25 19 23 25 23 16 13 14 20 26 25 25 28 25 23 24 27 29 28 26
4 5 19 27 24 15 14 19 18 15 19 23 27 25 19 16 22 24 22 17 20 16 26 29 30 26 28 26 19 24 18 15 13 20 24 25 25 27 25 23 26 29 31 31
3 8 5 13 22 15 8 11 15 15 7 22 25 25 23 22 20 26 22 21 21 18 18 35 29 24 24 24 20 23 25 20 15 11 15 20 20 22 26 27 25 27 31 34
5 5 7 6 9 8 11 6 3 6 11 11 23 28 25 25 27 25 16 22 20 21 19 29 24 25 27 22 20 24 24 25 23 16 13 12 12 14 19 23 26 28 28 32
4 5 9 7 6 8 8 9 9 10 8 16 25 30 27 32 36 31 26 23 20 21 20 19 19 19 20 20 20 22 23 23 22 21 21 17 16 14 13 13 18 26 29 29
5 6 10 7 11 4 8 6 6 9 9 18 26 29 30 39 40 37 35 32 33 26 24 26 17 15 17 16 15 16 17 20 21 18 17 20 22 21 19 18 18 21 24 30
6 6 8 6 6 13 11 8 7 7 3 16 22 27 37 44 42 39 39 38 34 32 27 26 23 21 20 19 18 16 13 14 14 15 13 16 20 24 25 27 25 23 24 27
8 4 10 8 6 4 9 10 9 14 6 10 23 32 33 36 37 38 39 36 34 31 26 22 25 26 23 22 22 21 20 19 19 22 19 18 17 18 21 26 27 28 27 27
11 11 8 6 6 7 7 7 8 11 11 4 13 30 35 37 37 40 38 42 32 27 28 25 20 19 19 20 20 22 21 21 21 24 25 19 31 23 20 23 26 27 32 30
10 8 10 6 6 4 6 10 6 9 14 6 4 6 30 33 36 38 34 30 28 21 21 23 20 21 21 18 17 17 17 17 17 20 25 28 29 28 28 24 26 26 31 33
8 10 9 5 13 14 18 18 18 14 7 11 8 4 7 8 11 15 13 12 15 17 14 17 18 17 16 15 15 18 18 20 20 22 23 28 30 31 32 32 30 29 30 33
20 20 24 23 21 19 20 20 21 15 10 9 10 9 9 9 9 10 8 12 14 10 22 15 14 17 15 17 19 21 22 24 25 26 27 28 31 33 34 35 36 34 33 30
16 23 17 24 24 19 18 18 14 15 17 15 18 12 18 5 5 9 9 16 15 17 19 15 23 24 21 21 22 23 24 25 27 28 30 32 33 36 35 36 38 36 35 31
14 20 24 27 27 23 18 17 16 11 8 7 9 16 26 21 15 9 8 11 9 12 12 15 15 16 21 22 22 24 28 28 28 30 31 35 36 36 36 35 37 38 37 37
Wind_Direction
218 215 220 223 231 229 240 286 310 318 270 275 276 132 193 186 181 201 194 193 195 204 197 187 183 177 183 193 187 181 177 177 173 186 174 161 149 137 130 125 123 115 116 118
216 220 217 223 229 231 247 278 290 315 280 244 257 249 213 218 202 206 207 199 194 195 205 202 199 199 192 205 196 191 192 190 173 175 181 166 154 150 141 139 133 131 131 134
220 220 218 225 228 232 244 254 271 289 285 259 272 264 240 250 226 214 212 212 206 207 203 211 206 205 207 204 208 199 193 195 191 184 191 183 171 162 156 147 142 148 157 175
227 222 224 227 232 229 249 235 266 290 281 238 318 277 241 228 236 226 213 211 210 209 213 222 215 212 212 211 208 208 196 196 194 197 192 197 187 170 161 158 150 155 157 167
221 224 220 222 223 224 233 247 272 295 259 257 272 273 280 204 222 242 223 220 218 223 215 217 210 208 212 217 213 205 204 199 201 197 196 194 194 178 172 163 161 163 162 168
223 218 221 225 223 221 232 252 271 276 253 248 263 250 281 237 251 219 196 193 214 229 223 211 208 219 218 223 216 209 204 206 209 205 197 196 199 192 180 173 170 171 165 164
217 218 218 213 223 221 232 241 261 237 205 227 258 257 254 230 273 252 220 188 187 213 217 207 200 201 213 219 214 210 206 210 207 214 202 195 200 198 188 182 179 176 169 163
225 228 212 213 218 219 234 234 202 187 213 238 244 239 252 265 275 253 223 220 200 205 200 202 207 203 208 211 212 212 211 214 210 212 214 203 202 216 202 190 187 182 182 175
205 224 231 212 216 218 230 232 228 243 263 257 246 259 277 285 266 247 223 215 210 202 209 208 205 204 205 208 211 214 212 218 220 216 218 223 209 203 207 200 194 195 194 183
217 220 218 221 215 218 229 220 197 211 176 212 254 254 248 273 280 210 197 209 200 212 217 217 202 196 198 213 217 218 219 220 227 222 218 226 226 211 200 207 204 202 205 195
226 224 220 204 212 220 224 227 226 228 218 186 183 274 251 261 279 202 196 209 217 216 221 223 227 221 215 215 214 207 217 220 223 226 222 223 228 222 213 208 212 212 212 207
225 239 229 224 228 230 232 231 230 218 205 216 253 240 267 241 199 209 210 218 240 233 226 224 227 226 218 216 207 199 200 216 222 225 223 224 225 229 224 216 212 218 217 217
325 221 221 235 238 242 237 227 223 225 230 232 223 244 236 226 189 190 201 189 221 234 235 211 228 216 224 225 224 212 204 206 217 223 225 221 225 227 230 227 220 220 221 219
317 272 224 225 241 229 222 231 227 224 224 222 229 245 247 248 219 208 216 210 220 238 247 239 223 246 248 229 230 228 219 209 209 213 221 223 224 227 229 233 233 226 227 226
229 268 241 197 221 207 182 180 198 214 223 219 224 233 229 230 221 203 205 204 217 210 233 210 206 217 231 219 220 222 220 213 207 185 199 218 226 231 231 233 239 237 233 233
195 243 233 238 193 182 197 190 214 210 214 210 207 223 210 204 199 200 198 185 199 210 198 199 219 227 224 220 215 212 208 216 214 202 167 173 198 220 233 234 238 242 242 235
232 224 228 217 197 185 228 238 239 221 201 200 201 216 214 192 189 193 205 196 187 188 192 204 208 217 226 231 228 229 221 222 225 223 211 199 199 207 219 232 238 241 244 245
226 230 224 206 165 156 179 190 209 219 187 194 206 202 203 197 187 190 194 206 205 209 207 216 217 218 217 222 226 225 229 237 235 235 233 224 211 210 215 227 234 238 243 247
201 207 202 208 128 147 146 172 199 212 172 173 178 185 194 192 192 193 195 200 211 219 219 213 215 221 225 221 225 232 233 243 244 240 240 237 237 231 219 219 222 231 240 244
195 191 203 171 140 148 165 168 162 187 168 206 176 189 200 203 201 193 190 195 193 196 205 210 216 223 222 226 227 234 242 248 260 266 264 266 266 258 250 246 236 229 230 237
175 164 140 118 101 96 146 170 173 185 184 241 208 192 196 208 209 203 194 201 199 195 200 200 203 205 210 216 222 233 241 249 257 265 271 255 262 265 266 263 254 253 244 234
172 148 136 133 103 61 149 156 172 184 164 155 199 176 205 212 215 216 208 199 196 193 200 205 211 215 215 216 221 228 238 248 257 266 273 273 274 278 281 277 267 255 254 257
161 163 131 130 128 117 122 130 130 130 147 173 192 192 120 193 207 214 205 205 219 218 213 219 224 221 231 247 256 264 273 274 274 273 278 279 277 276 275 275 274 263 256 251
128 131 133 128 141 139 131 154 163 164 191 201 198 188 172 160 166 172 181 220 225 229 231 240 259 267 263 271 272 272 275 278 280 281 280 280 282 275 270 268 270 272 262 256
143 147 165 153 155 170 166 160 170 180 189 192 204 210 210 271 211 182 184 204 221 234 252 246 240 255 269 267 268 273 275 273 275 277 280 280 276 276 272 268 264 265 268 264
134 145 154 157 161 178 181 169 169 178 195 213 214 229 234 277 269 243 239 216 216 214 219 231 253 242 250 258 261 266 270 274 276 278 276 277 276 276 273 269 267 264 262 263